Погода в Субанге

Индонезия     6°33′44″S   107°44′48″E
темп.,
°C
ветер,
м/с
пор.,
м/с
влажн.,
%
обл.,
%
осадки,
мм/ч
давл.,
гПа
погр.,
м
2 марта, вт
вт201:00+24ююз1292100 0.1 101025
04:00+24юз129395 1.4 100950
07:00+25юз259283 4.9 1011196
10:00+29зсз467241 0.7 1012928
13:00+31зсз566621 1.2 10091248
16:00+30зсз467138 1.9 10081095
19:00+25з128869 6.4 101028
22:00+25ююз1190100 0.3 101224
3 марта, ср
ср301:00+24ю119095 0.4 101024
04:00+23юв1292100 0.8 100924
07:00+24ююв119198 0.8 101029
10:00+30ссз226963 0.0 1011928
13:00+29сз237567 0.9 1009896
16:00+28ссз238188 3.9 1008738
19:00+25з129293 10.6 101047
22:00+25юз2291100 4.0 101240
4 марта, чт
чт401:00+24ююз2390100 4.4 101274
04:00+23юв1189100 0.4 101128
07:00+23юв1292100 0.4 101248
10:00+28зсз227391 0.0 1012459
13:00+31сз336151 0.0 10101145
16:00+30сз336745 0.2 10081073
19:00+25сз239373 5.4 101196
22:00+24в2393100 2.6 101270
5 марта, пт
пт501:00+23ююв2294100 2.9 101180
04:00+24ююз1189100 0.0 101024
07:00+25ссв008793 0.0 101145
10:00+30с226633 0.0 1012756
13:00+32ссв335817 0.1 10091367
16:00+29ссв337448 2.1 1007916
19:00+26с019072 4.6 100924
22:00+25юв1192100 7.8 101125
6 марта, сб
сб601:00+24юз229199 11.7 101026
04:00+24ююз1291100 0.9 100924
07:00+25ю018783 1.4 101043
10:00+28сз23770 3.3 1011601
13:00+29ссз248036 12.1 1009764
16:00+26ссз1291100 8.9 100892
19:00+24ююз2395100 14.4 101082
22:00+23зюз3697100 15.9 1012220